Rbgn^[z[y[W
メイン
   新天体発見情報
     Comet P/2021 P3 (PANSTARRS)
投稿するにはまず登録を

スレッド表示 | 新しいものから 前のトピック | 次のトピック | 下へ
投稿者 スレッド
佐藤裕久
投稿日時: 2021-8-25 20:33
モデレータ
登録日: 2005-6-12
居住地: 日本
投稿: 2669
オンライン
Comet P/2021 P3 (PANSTARRS)

R. Weryk (西オンタリオ大学,物理および天文学科)の通報によると、8月11日、Haleakalaにある
Pan-STARRS1 1.8-m Ritchey-Chretien反射望遠鏡で得た画像から彗星を発見した。
WerykとR. Wainscoatは、8月12.5日UT、Mauna Keaにある3.6-m Canada-France-Hawaii望遠鏡で
得た60秒3枚のgri-バンドフォローアップ画像から、明らかに彗星で、0".7のシーイングにおいて
1".2 (半値全幅:FWHM)の大変集光したコマが見え、p.a.100-230°にまたいで約5" の非常に広い
尾がある。8月3日、発見前のPan-STARRS1観測があった。
小惑星センターのPCCP webpageに公表後、佐藤英貴氏(東京都文京区, 8月12.79日, 60秒露出16枚
のスタック,  0.51-m f/6.8 アストログラフ, Siding Spring, NSW, オーストラリア, 遠隔操作: 
強く集光した8" のコマが見えるが尾はない。4".9の円形範囲で測定した光度は19.7等であった)
によって彗星状と観測された。

彗星機能の報告は次のとおり、

OC   Date        Reporter           Coma    Tail    PA          Exposures
Q62  2021-08-12  H. Sato            8"                           12x60s

発見位置は次のとおり、

     2021 UT             R.A. (2000) Decl.       Mag.
     Aug.  3.58406    0 27 06.01   - 4 18 54.9   21.2
           3.59232    0 27 05.90   - 4 18 52.4   21.1
           3.60051    0 27 05.77   - 4 18 49.5   21.3
           3.60870    0 27 05.64   - 4 18 47.0   21.2
          11.58454    0 24 32.59   - 3 38 48.0   20.6
          11.59701    0 24 32.28   - 3 38 44.7   20.5
          11.60944    0 24 31.95   - 3 38 40.6   20.6

MPCの楕円軌道要素、位置推算表は次のとおり、

Orbital elements:
    P/2021 P3 (PANSTARRS)                                                       
Epoch 2021 May 26.0 TT = JDT 2459360.5                                          
T 2021 May 26.63051 TT                                  Rudenko                 
q   2.9110297            (2000.0)            P               Q                  
n   0.10493899     Peri.  333.14494     +0.87953205     +0.47563886             
a   4.4515520      Node   358.26046     -0.31186195     +0.55425660             
e   0.3460641      Incl.   27.08607     -0.35939602     +0.68305732             
P   9.39                                                                        
From 36 observations 2021 Aug. 3-15, mean residual 0".6.                        
                                                                                
    P/2021 P3 (PANSTARRS)                                                       
Epoch 2030 Sept. 16.0 TT = JDT 2462760.5                                        
T 2030 Sept. 22.91784 TT                                Rudenko                 
q   2.8734942            (2000.0)            P               Q                  
n   0.10637443     Peri.  333.57612     +0.88274485     +0.46963713             
a   4.4114146      Node   358.21323     -0.30794493     +0.55541814             
e   0.3486229      Incl.   27.15358     -0.35486821     +0.68625917             
P   9.27                                                                        
From 36 observations 2021 Aug. 3-15, mean residual 0".6.                        
                                                                                
    P/2021 P3 (PANSTARRS)                                                       
Epoch 2021 July 5.0 TT = JDT 2459400.5                                          
T 2021 May 26.54102 TT                                  Rudenko                 
q   2.9110099            (2000.0)            P               Q                  
n   0.10497375     Peri.  333.12773     +0.87936288     +0.47595066             
a   4.4505694      Node   358.25689     -0.31205479     +0.55408874             
e   0.3459242      Incl.   27.08998     -0.35964250     +0.68297630             
P   9.39                                                                        
From 36 observations 2021 Aug. 3-15, mean residual 0".6.                        
                                                                                
Ephemeris:
Date    TT    R. A. (2000) Decl.     Delta      r    Elong.  Phase   m1
2021 07 20    00 27 53.2 -05 42 20   2.3803  2.9288   112.9    18.6  20.6
...
2021 08 04    00 27 00.3 -04 16 43   2.2179  2.9399   126.8    16.0  20.4
...
2021 08 12    00 24 22.2 -03 36 48   2.1438  2.9468   134.8    14.1  20.3
...
2021 08 18    00 21 24.8 -03 09 16   2.0958  2.9525   141.1    12.4  20.3
2021 08 19    00 20 50.5 -03 04 52   2.0885  2.9535   142.1    12.1  20.3
2021 08 20    00 20 14.9 -03 00 31   2.0814  2.9545   143.2    11.8  20.3
...
2021 08 26    00 16 15.4 -02 35 23   2.0436  2.9607   149.8     9.9  20.3
...
2021 09 03    00 09 53.6 -02 04 16   2.0066  2.9696   158.8     7.1  20.2
...
2021 09 18    23 55 51.6 -01 10 58   1.9846  2.9881   176.4     1.2  20.2

(MPEC 2021-Q29、CBET 5022)

スレッド表示 | 新しいものから 前のトピック | 次のトピック | トップ

投稿するにはまず登録を
 
© 1999 Tsutomu Seki.